{"data":{"norad_id":64481,"epoch":"2026-09-20T05:41:35.508192Z","epoch_age_seconds":154261,"freshness":"FRESH","line1":"1 64481U 25133K   26263.23721653  .00010190  00000+0  31229-3 0  9995","line2":"2 64481  53.1591 291.0826 0001271 100.4857 259.6289 15.34402309 70899","mean_motion":15.34402309,"eccentricity":0.0001271,"inclination_deg":53.1591,"raan_deg":291.0826,"arg_perigee_deg":100.4857,"mean_anomaly_deg":259.6289,"bstar":0.00031229,"rev_number":7089,"period_min":93.847616857308,"perigee_km":461.82690745885,"apogee_km":463.56584730338,"semimajor_km":6840.8333773811,"source":"CELESTRAK","updated_at":"2026-09-21T09:00:35.359888Z"}}